sat.trackr.live / text

‹ back to catalog

STARLINK-32370

NORAD 61635 · 2024-191Q

PAYLOAD ACTIVE UNKNOWN

§ Identity

Operator
Country
US
Launch date
2024-10-23
Launch site
AFETR
Launch vehicle
Mass (kg)
RCS (m²)

Purposes: comms

External: N2YO · Heavens-Above · Gunter

§ Orbital elements

Epoch: 2026-05-24T22:53:45.321792Z

Period
94.27 min
Inclination
43.0036°
Eccentricity
0.0001285
Mean motion
15.27574426 rev/d
Perigee alt
482.2 km
Apogee alt
483.9 km
Semi-major
6,861.2 km
B*
5.2471e-7
RAAN
83.4891°
Arg perigee
262.2098°
Mean anomaly
97.8608°
Rev number
8,920

§ Raw data

STARLINK-323701 61635U 24191Q   26144.95399678 -.00000248  00000+0  52471-6 0  99902 61635  43.0036  83.4891 0001285 262.2098  97.8608 15.27574426 89207

JSON: /api/v1/satellites/61635 · /tle

For live sub-satellite position, see the globe view (requires WebGL).

§ Visibility from observer

Set your observer location to see the next 7 days of passes ≥ 10°. The values pass through the URL so the page stays shareable.

No JS? Fill the form by hand. The geolocation button needs JavaScript.